N828WW KISM-KMTH

Flight info

Callsign N828WW
Flight time 1h 3m
Altitude 23000
Route FSHUN
Aircraft BE60/L-SDFGRY/C

Departure

Time 2026-05-04 05:34
Airport Kissimmee Gateway Airport (KISM)

Arrival

Time 2026-05-04 06:38
Airport Florida Keys Marathon International Airport (KMTH)
Time Latitude Longitude Altitude Speed Heading
2026-05-04 05:14 28.29231 -81.44119 89 ft 0 kts 221°
2026-05-04 05:25 28.29219 -81.44107 90 ft 4 kts 48°
2026-05-04 05:25 28.29283 -81.44104 90 ft 9 kts 59°
2026-05-04 05:26 28.29205 -81.44021 89 ft 24 kts 146°
2026-05-04 05:26 28.29093 -81.43943 94 ft 15 kts 161°
2026-05-04 05:26 28.29042 -81.43996 92 ft 8 kts 241°
2026-05-04 05:26 28.29006 -81.44059 95 ft 18 kts 239°
2026-05-04 05:27 28.28919 -81.44218 91 ft 17 kts 237°
2026-05-04 05:28 28.28792 -81.44429 87 ft 0 kts 188°
2026-05-04 05:31 28.28766 -81.44432 87 ft 0 kts 184°
2026-05-04 05:33 28.28698 -81.44407 91 ft 28 kts 136°
2026-05-04 05:34 28.28748 -81.44285 91 ft 43 kts 52°
2026-05-04 05:34 28.29041 -81.43747 200 ft 105 kts 58°
2026-05-04 05:34 28.29364 -81.42947 739 ft 118 kts 79°
2026-05-04 05:34 28.29052 -81.42114 1456 ft 126 kts 140°
2026-05-04 05:35 28.28169 -81.42063 2170 ft 136 kts 193°
2026-05-04 05:35 28.27284 -81.42396 2874 ft 132 kts 192°
2026-05-04 05:35 28.26418 -81.42697 3561 ft 129 kts 193°
2026-05-04 05:35 28.25568 -81.42968 4224 ft 126 kts 192°
2026-05-04 05:36 28.24732 -81.43224 4886 ft 123 kts 193°
2026-05-04 05:36 28.23865 -81.43449 5445 ft 134 kts 193°
2026-05-04 05:36 28.22935 -81.43677 6093 ft 138 kts 194°
2026-05-04 05:36 28.21982 -81.43844 6755 ft 139 kts 190°
2026-05-04 05:37 28.21022 -81.44013 7387 ft 140 kts 194°
2026-05-04 05:37 28.20064 -81.44215 8023 ft 140 kts 195°
2026-05-04 05:37 28.19104 -81.44416 8679 ft 140 kts 197°
2026-05-04 05:38 28.17194 -81.44838 9976 ft 139 kts 199°
2026-05-04 05:38 28.16244 -81.45048 10568 ft 138 kts 200°
2026-05-04 05:38 28.15304 -81.45256 11163 ft 137 kts 200°
2026-05-04 05:38 28.14372 -81.45462 11769 ft 136 kts 201°
2026-05-04 05:39 28.13452 -81.45664 12381 ft 134 kts 201°
2026-05-04 05:39 28.11637 -81.46065 13560 ft 132 kts 202°
2026-05-04 05:39 28.10733 -81.46265 14131 ft 132 kts 203°
2026-05-04 05:40 28.08943 -81.46660 15151 ft 130 kts 205°
2026-05-04 05:40 28.08059 -81.46854 15679 ft 129 kts 205°
2026-05-04 05:40 28.07186 -81.47047 16210 ft 127 kts 206°
2026-05-04 05:41 28.06328 -81.47236 16745 ft 125 kts 207°
2026-05-04 05:41 28.05482 -81.47423 17264 ft 123 kts 208°
2026-05-04 05:41 28.04643 -81.47608 17760 ft 122 kts 208°
2026-05-04 05:41 28.03790 -81.47802 18075 ft 135 kts 208°
2026-05-04 05:42 28.02780 -81.48045 18086 ft 161 kts 206°
2026-05-04 05:42 28.01608 -81.48304 18084 ft 181 kts 204°
2026-05-04 05:42 28.00329 -81.48573 18085 ft 192 kts 203°
2026-05-04 05:42 27.98996 -81.48864 18114 ft 198 kts 203°
2026-05-04 05:43 27.97625 -81.49167 18109 ft 203 kts 203°
2026-05-04 05:43 27.96222 -81.49475 18104 ft 207 kts 202°
2026-05-04 05:43 27.94808 -81.49786 18110 ft 208 kts 203°
2026-05-04 05:45 27.83793 -81.49278 18097 ft 238 kts 185°
2026-05-04 05:45 27.82151 -81.49038 18093 ft 238 kts 185°
2026-05-04 05:47 27.71209 -81.47383 18079 ft 240 kts 182°
2026-05-04 05:47 27.69562 -81.47032 18076 ft 241 kts 181°
2026-05-04 05:47 27.67916 -81.46670 18077 ft 241 kts 181°
2026-05-04 05:48 27.66269 -81.46314 18077 ft 241 kts 182°
2026-05-04 05:48 27.64622 -81.45962 18077 ft 241 kts 182°
2026-05-04 05:48 27.62976 -81.45610 18078 ft 241 kts 182°
2026-05-04 05:48 27.61331 -81.45258 18077 ft 241 kts 182°
2026-05-04 05:49 27.59686 -81.44907 18074 ft 240 kts 182°
2026-05-04 05:49 27.58045 -81.44557 18074 ft 240 kts 182°
2026-05-04 05:49 27.56403 -81.44206 18073 ft 240 kts 182°
2026-05-04 05:49 27.54766 -81.43857 18081 ft 239 kts 182°
2026-05-04 05:51 27.43308 -81.41416 18086 ft 239 kts 182°
2026-05-04 05:51 27.41674 -81.41068 18070 ft 239 kts 182°
2026-05-04 05:52 27.40040 -81.40721 18073 ft 239 kts 182°
2026-05-04 05:52 27.38407 -81.40374 18072 ft 239 kts 182°
2026-05-04 05:52 27.36774 -81.40027 18072 ft 239 kts 182°
2026-05-04 05:52 27.35139 -81.39679 18071 ft 239 kts 182°
2026-05-04 05:53 27.33509 -81.39331 18066 ft 238 kts 182°
2026-05-04 05:54 27.22109 -81.36913 18056 ft 238 kts 182°
2026-05-04 05:55 27.20485 -81.36569 18039 ft 236 kts 182°
2026-05-04 05:55 27.18873 -81.36226 18057 ft 236 kts 182°
2026-05-04 05:55 27.17257 -81.35886 18056 ft 237 kts 182°
2026-05-04 05:55 27.15640 -81.35544 18054 ft 237 kts 182°
2026-05-04 05:56 27.14042 -81.35205 18053 ft 237 kts 182°
2026-05-04 05:56 27.12423 -81.34862 18054 ft 237 kts 182°
2026-05-04 05:56 27.10781 -81.34514 18054 ft 237 kts 182°
2026-05-04 05:56 27.09182 -81.34177 18054 ft 237 kts 182°
2026-05-04 05:57 27.07561 -81.33834 18055 ft 237 kts 182°
2026-05-04 05:57 27.05942 -81.33491 18054 ft 237 kts 182°
2026-05-04 05:57 27.04322 -81.33149 18055 ft 237 kts 182°
2026-05-04 05:57 27.02704 -81.32807 18055 ft 237 kts 182°
2026-05-04 05:58 27.01089 -81.32466 18054 ft 236 kts 182°
2026-05-04 05:58 26.99470 -81.32124 18054 ft 236 kts 182°
2026-05-04 05:58 26.97854 -81.31783 18054 ft 236 kts 182°
2026-05-04 05:58 26.96237 -81.31442 18047 ft 236 kts 182°
2026-05-04 05:59 26.94621 -81.31101 18048 ft 236 kts 182°
2026-05-04 05:59 26.93004 -81.30760 18047 ft 236 kts 182°
2026-05-04 05:59 26.91389 -81.30420 18047 ft 236 kts 182°
2026-05-04 05:59 26.89774 -81.30079 18042 ft 235 kts 182°
2026-05-04 06:00 26.88168 -81.29739 18045 ft 236 kts 182°
2026-05-04 06:00 26.86563 -81.29399 18048 ft 234 kts 182°
2026-05-04 06:00 26.84961 -81.29064 18048 ft 235 kts 182°
2026-05-04 06:00 26.83351 -81.28727 18043 ft 235 kts 182°
2026-05-04 06:01 26.81745 -81.28388 18044 ft 235 kts 182°
2026-05-04 06:01 26.80135 -81.28050 18038 ft 235 kts 182°
2026-05-04 06:03 26.68914 -81.25691 18035 ft 234 kts 182°
2026-05-04 06:03 26.67317 -81.25355 18037 ft 233 kts 182°
2026-05-04 06:05 26.56189 -81.23015 18042 ft 232 kts 182°
2026-05-04 06:05 26.52999 -81.22355 18048 ft 234 kts 182°
2026-05-04 06:05 26.51396 -81.22018 18050 ft 234 kts 181°
2026-05-04 06:06 26.49795 -81.21677 18054 ft 234 kts 182°
2026-05-04 06:06 26.48191 -81.21345 18055 ft 234 kts 182°
2026-05-04 06:06 26.46588 -81.21012 18051 ft 234 kts 182°
2026-05-04 06:06 26.44984 -81.20680 18045 ft 234 kts 182°
2026-05-04 06:07 26.43381 -81.20357 18047 ft 234 kts 182°
2026-05-04 06:07 26.41778 -81.20019 18047 ft 235 kts 181°
2026-05-04 06:07 26.40176 -81.19675 18047 ft 234 kts 181°
2026-05-04 06:07 26.38574 -81.19337 18047 ft 234 kts 182°
2026-05-04 06:08 26.36975 -81.19003 18047 ft 234 kts 182°
2026-05-04 06:08 26.35399 -81.18675 18044 ft 234 kts 182°
2026-05-04 06:08 26.33779 -81.18337 18044 ft 234 kts 182°
2026-05-04 06:08 26.32179 -81.18003 18044 ft 234 kts 182°
2026-05-04 06:09 26.30584 -81.17669 18046 ft 233 kts 182°
2026-05-04 06:09 26.28994 -81.17339 18022 ft 233 kts 181°
2026-05-04 06:11 26.17750 -81.14997 18037 ft 235 kts 181°
2026-05-04 06:11 26.16143 -81.14662 18036 ft 235 kts 181°
2026-05-04 06:13 26.04907 -81.12328 18036 ft 235 kts 181°
2026-05-04 06:14 25.95285 -81.10335 18033 ft 238 kts 181°
2026-05-04 06:14 25.93644 -81.09996 18040 ft 241 kts 181°
2026-05-04 06:15 25.91987 -81.09651 18043 ft 243 kts 181°
2026-05-04 06:15 25.90321 -81.09304 18047 ft 244 kts 181°
2026-05-04 06:15 25.88653 -81.08959 18046 ft 244 kts 181°
2026-05-04 06:15 25.86981 -81.08613 18045 ft 244 kts 181°
2026-05-04 06:16 25.85308 -81.08267 18040 ft 245 kts 181°
2026-05-04 06:16 25.83632 -81.07920 18039 ft 245 kts 181°
2026-05-04 06:16 25.81958 -81.07573 18039 ft 245 kts 181°
2026-05-04 06:16 25.80285 -81.07228 18039 ft 244 kts 181°
2026-05-04 06:17 25.78613 -81.06882 18036 ft 244 kts 181°
2026-05-04 06:17 25.76942 -81.06537 18037 ft 244 kts 181°
2026-05-04 06:17 25.75273 -81.06192 18037 ft 244 kts 181°
2026-05-04 06:17 25.73602 -81.05847 18034 ft 244 kts 181°
2026-05-04 06:18 25.71937 -81.05503 18029 ft 244 kts 181°
2026-05-04 06:18 25.70268 -81.05159 18032 ft 244 kts 181°
2026-05-04 06:18 25.68602 -81.04815 18034 ft 243 kts 181°
2026-05-04 06:20 25.56996 -81.02422 18016 ft 242 kts 180°
2026-05-04 06:20 25.55341 -81.02082 18016 ft 242 kts 180°
2026-05-04 06:21 25.48535 -81.00671 16961 ft 236 kts 180°
2026-05-04 06:21 25.46974 -81.00346 16642 ft 222 kts 181°
2026-05-04 06:22 25.45500 -81.00046 16324 ft 210 kts 181°
2026-05-04 06:22 25.44081 -80.99759 16011 ft 205 kts 181°
2026-05-04 06:25 25.23763 -80.95601 12355 ft 242 kts 177°
2026-05-04 06:25 25.22109 -80.95263 12062 ft 242 kts 177°
2026-05-04 06:26 25.20454 -80.94923 11769 ft 241 kts 177°
2026-05-04 06:26 25.18812 -80.94587 11478 ft 239 kts 177°
2026-05-04 06:26 25.17178 -80.94253 11189 ft 238 kts 177°
2026-05-04 06:26 25.15549 -80.93920 10905 ft 238 kts 176°
2026-05-04 06:27 25.09032 -80.92588 9781 ft 238 kts 176°
2026-05-04 06:28 25.07402 -80.92256 9472 ft 238 kts 175°
2026-05-04 06:28 25.05776 -80.91924 9171 ft 237 kts 175°
2026-05-04 06:28 25.04159 -80.91592 8866 ft 234 kts 176°
2026-05-04 06:28 25.02560 -80.91270 8495 ft 234 kts 175°
2026-05-04 06:29 25.00960 -80.90941 8129 ft 235 kts 175°
2026-05-04 06:29 24.99410 -80.90623 7758 ft 216 kts 174°
2026-05-04 06:29 24.97991 -80.90328 7386 ft 206 kts 175°
2026-05-04 06:29 24.96601 -80.90046 7018 ft 201 kts 175°
2026-05-04 06:30 24.95235 -80.89768 6656 ft 198 kts 175°
2026-05-04 06:30 24.93885 -80.89496 6295 ft 195 kts 174°
2026-05-04 06:30 24.92705 -80.89245 5892 ft 152 kts 175°
2026-05-04 06:30 24.91751 -80.89051 5457 ft 142 kts 175°
2026-05-04 06:31 24.90750 -80.88859 4958 ft 148 kts 175°
2026-05-04 06:31 24.89763 -80.88657 4428 ft 142 kts 174°
2026-05-04 06:31 24.89113 -80.88513 4067 ft 139 kts 174°
2026-05-04 06:31 24.88161 -80.88324 3517 ft 148 kts 174°
2026-05-04 06:32 24.87102 -80.88114 3002 ft 159 kts 173°
2026-05-04 06:33 24.79568 -80.87852 1903 ft 132 kts 224°
2026-05-04 06:34 24.78971 -80.88612 1905 ft 134 kts 238°
2026-05-04 06:34 24.78575 -80.89545 1911 ft 135 kts 251°
2026-05-04 06:34 24.78214 -80.90503 1912 ft 136 kts 247°
2026-05-04 06:34 24.77843 -80.91466 1916 ft 136 kts 248°
2026-05-04 06:35 24.77448 -80.92396 1891 ft 131 kts 249°
2026-05-04 06:36 24.74578 -81.00061 623 ft 138 kts 251°
2026-05-04 06:37 24.74215 -81.00965 523 ft 128 kts 247°
2026-05-04 06:37 24.73826 -81.01956 483 ft 154 kts 251°
2026-05-04 06:37 24.73440 -81.02981 326 ft 122 kts 251°
2026-05-04 06:37 24.73127 -81.03793 171 ft 123 kts 250°
2026-05-04 06:38 24.72782 -81.04699 14 ft 120 kts 250°
2026-05-04 06:38 24.72547 -81.05329 9 ft 40 kts 248°
2026-05-04 06:40 24.72466 -81.05338 8 ft 11 kts 140°
2026-05-04 06:40 24.72404 -81.05377 8 ft 21 kts 245°
2026-05-04 06:40 24.72420 -81.05416 8 ft 0 kts 337°
2026-05-04 06:42 24.72419 -81.05444 11 ft 0 kts 129°